User: anonymous   Login
Location: PSU-Greenbush Astrophysical Observatory
(37.5140°N, 94.9880°W)
Time: 12:58:14
(UTC-05:00)
Language:

CUTE 1.7 + AOD 2 - Orbit

View from above orbital plane
View from above orbital plane
View from above satellite
View from above satellite

Ground track
Ground track

The orbit data is extracted from the following two-line orbital elements,

1 32785U 08021C   21133.65019953  .00000288  00000-0  36384-4 0  9990
2 32785  97.6093 113.8488 0014397 115.5608 244.7099 14.88704595707060
Epoch (UTC): 13 May 2021 15:36:17
Eccentricity: 0.0014397
inclination: 97.6093°
perigee height: 592 km
apogee height: 612 km
right ascension of ascending node: 113.8488°
argument of perigee: 115.5608°
revolutions per day: 14.88704595
mean anomaly at epoch: 244.7099°
orbit number at epoch: 70706

The dashed part of the orbit path shows where the satellite is in the earth's shadow,  

DLR